Back to catalog

STARLINK-33621

AliveCommunicationsVLEO
NORAD 63375·PAYLOAD·🇺🇸 United States

Launched Mar 26, 2025 from Vandenberg Space Force Base

Loading…

Next Passes (next 24 hours)

TLE

FreshSource: CelesTrak SupGP

Epoch: Sep 14, 2026, 22:54 UTC

1 63375C 25063N   26257.95465278  .00033600  00000+0  99271-3 0  2577
2 63375  53.1575 247.4026 0001366  91.2513 157.1565 15.34374166    15

Track STARLINK-33621 in real time with AllMySat

Download on the App Store